TimeAKDT,TemperatureF,Dew PointF,Humidity,Sea Level PressureIn,VisibilityMPH,Wind Direction,Wind SpeedMPH,Gust SpeedMPH,PrecipitationIn,Events,Conditions,WindDirDegrees,DateUTC
12:53 AM,68.0,52.0,56,29.88,10.0,NNW,3.5,-,N/A,,Mostly Cloudy,340,2013-06-27 08:53:00
1:53 AM,64.9,54.0,68,29.90,10.0,NNW,6.9,-,N/A,,Mostly Cloudy,330,2013-06-27 09:53:00
2:53 AM,62.1,53.1,72,29.91,10.0,NNW,5.8,-,N/A,,Mostly Cloudy,340,2013-06-27 10:53:00
3:53 AM,62.1,54.0,75,29.94,10.0,SE,3.5,-,N/A,,Mostly Cloudy,140,2013-06-27 11:53:00
4:53 AM,63.0,53.1,70,29.95,10.0,SSW,4.6,-,N/A,,Mostly Cloudy,210,2013-06-27 12:53:00
5:53 AM,60.1,55.0,83,29.96,10.0,NW,4.6,-,N/A,,Mostly Cloudy,310,2013-06-27 13:53:00
6:53 AM,61.0,55.0,81,29.97,10.0,WNW,5.8,-,N/A,,Mostly Cloudy,290,2013-06-27 14:53:00
7:53 AM,62.1,54.0,75,29.99,10.0,West,12.7,-,N/A,,Scattered Clouds,280,2013-06-27 15:53:00
8:53 AM,61.0,53.1,75,30.01,10.0,West,9.2,-,N/A,,Clear,280,2013-06-27 16:53:00
9:53 AM,62.1,54.0,75,30.02,10.0,West,8.1,-,N/A,,Mostly Cloudy,280,2013-06-27 17:53:00
10:53 AM,64.0,52.0,65,30.02,10.0,West,8.1,-,N/A,,Scattered Clouds,280,2013-06-27 18:53:00
11:53 AM,66.0,53.1,63,30.02,10.0,Variable,3.5,-,N/A,,Scattered Clouds,0,2013-06-27 19:53:00
12:53 PM,66.9,53.1,61,30.01,9.0,WNW,9.2,-,N/A,,Clear,290,2013-06-27 20:53:00
1:53 PM,64.9,53.1,65,30.02,10.0,West,11.5,-,N/A,,Clear,280,2013-06-27 21:53:00
2:53 PM,64.9,53.1,65,30.02,10.0,WSW,10.4,-,N/A,,Clear,250,2013-06-27 22:53:00
3:53 PM,66.0,53.1,63,30.01,10.0,WNW,10.4,-,N/A,,Scattered Clouds,290,2013-06-27 23:53:00
4:53 PM,64.9,53.1,65,30.01,10.0,WNW,6.9,-,N/A,,Clear,290,2013-06-28 00:53:00
5:53 PM,64.9,53.1,65,30.01,10.0,WNW,8.1,-,N/A,,Clear,290,2013-06-28 01:53:00
6:53 PM,64.9,53.1,65,30.01,10.0,WNW,8.1,-,N/A,,Clear,300,2013-06-28 02:53:00
7:53 PM,64.9,53.1,65,30.02,10.0,Variable,5.8,-,N/A,,Clear,0,2013-06-28 03:53:00
8:53 PM,61.0,54.0,78,30.03,10.0,WNW,8.1,-,N/A,,Clear,290,2013-06-28 04:53:00
9:53 PM,60.1,55.9,86,30.05,10.0,West,9.2,-,N/A,,Overcast,280,2013-06-28 05:53:00
10:53 PM,59.0,55.0,87,30.06,10.0,Calm,Calm,-,N/A,,Mostly Cloudy,0,2013-06-28 06:53:00
11:53 PM,62.1,55.9,80,30.08,10.0,SSW,5.8,-,N/A,,Mostly Cloudy,210,2013-06-28 07:53:00